Jackson Hawkins Field, MS

7:44 AM CDT on June 25, 2017 (GMT -0500)
Hawkins

Weather History for KHKS - October, 2013

Change the Weather History Date:

Friday, October 11, 2013

  Actual Average (KJAN) Record (KJAN)
Temperature  
Mean Temperature 72 °F -  
Max Temperature 84 °F 80 °F 93 °F (1928)
Min Temperature 62 °F 52 °F 35 °F (1964)
Cooling Degree Days 7    
Growing Degree Days 22 (Base 50)    
Moisture  
Dew Point 64 °F    
Average Humidity 85    
Maximum Humidity 100    
Minimum Humidity 52    
Precipitation  
Precipitation 0.00 in - - ()
Sea Level Pressure  
Sea Level Pressure 30.02 in    
Wind  
Wind Speed 1 mph (South)    
Max Wind Speed 7 mph    
Max Gust Speed -    
Visibility 5 miles    
Events Fog    
Averages and records for this station are not official NWS values.
T = Trace of Precipitation, MM = Missing Value Source: NWS Daily Summary

Daily Weather History Graph

Daily Weather History Graph

Search for Another Location

Airport or City:

Trip Planner

Search our weather history database for the weather conditions in past years. The results will help you decide how hot, cold, wet, or windy it might be!

Date:

Astronomy

Oct. 11, 2013 Rise Set
Actual Time 7:01 AM CDT 6:32 PM CDT
Civil Twilight 6:37 AM CDT 6:57 PM CDT
Nautical Twilight 6:08 AM CDT 7:25 PM CDT
Astronomical Twilight 5:40 AM CDT 7:54 PM CDT
Moon 1:33 PM CDT (10/11) No Moon Set
Length of Visible Light 12h 19m
Length of Day
11h 30m
Waxing Crescent, 47% of the Moon is Illuminated
Oct 11
Waxing Crescent
Oct 11
First Quarter
Oct 18
Full
Oct 26
Last Quarter
Nov 3
New

Hourly Weather History & Observations

Time (CDT) Temp. Heat Index Dew Point Humidity Pressure Visibility Wind Dir Wind Speed Gust Speed Precip Events Conditions
12:53 AM 64.9 °F - 63.0 °F 93% 30.00 in 6.0 mi Calm Calm - N/A   Clear
1:53 AM 66.0 °F - 63.0 °F 90% 30.00 in 6.0 mi Calm Calm - N/A   Partly Cloudy
2:53 AM 66.0 °F - 63.0 °F 90% 29.99 in 7.0 mi Calm Calm - N/A   Clear
3:53 AM 64.9 °F - 62.1 °F 90% 29.99 in 6.0 mi Calm Calm - N/A   Clear
4:53 AM 64.0 °F - 62.1 °F 93% 30.00 in 4.0 mi Calm Calm - N/A   Clear
5:08 AM 62.6 °F - 62.6 °F 100% 30.02 in 4.0 mi Calm Calm - N/A   Partly Cloudy
5:17 AM 62.6 °F - 60.8 °F 94% 30.03 in 1.8 mi Calm Calm - N/A   Clear
5:27 AM 62.6 °F - 60.8 °F 94% 30.03 in 0.8 mi Calm Calm - N/A   Mist
5:31 AM 62.6 °F - 60.8 °F 94% 30.03 in 1.2 mi Calm Calm - N/A   Scattered Clouds
5:35 AM 62.6 °F - 62.6 °F 100% 30.03 in 0.8 mi Calm Calm - N/A   Mist
5:53 AM 63.0 °F - 62.1 °F 97% 30.01 in 0.2 mi Calm Calm - N/A Fog Fog
6:07 AM 64.4 °F - 62.6 °F 94% 30.04 in 0.2 mi Calm Calm - N/A Fog Fog
6:48 AM 64.4 °F - 64.4 °F 100% 30.05 in 0.2 mi Calm Calm - N/A Fog Fog
6:53 AM 64.9 °F - 64.0 °F 97% 30.03 in 0.2 mi Calm Calm - N/A Fog Fog
7:27 AM 64.4 °F - 64.4 °F 100% 30.06 in 0.2 mi Calm Calm - N/A Fog Fog
7:53 AM 64.9 °F - 64.0 °F 97% 30.04 in 0.2 mi Calm Calm - N/A Fog Fog
8:10 AM 66.2 °F - 64.4 °F 94% 30.07 in 0.2 mi Calm Calm - N/A Fog Fog
8:41 AM 66.2 °F - 66.2 °F 100% 30.07 in 0.8 mi SE 3.5 mph - N/A   Mist
8:53 AM 66.9 °F - 66.0 °F 97% 30.04 in 0.5 mi SE 3.5 mph - N/A Fog Fog
9:00 AM 68.0 °F - 66.2 °F 94% 30.07 in 0.2 mi Calm Calm - N/A Fog Fog
9:13 AM 68.0 °F - 66.2 °F 94% 30.07 in 1.0 mi SSE 4.6 mph - N/A   Overcast
9:29 AM 68.0 °F - 66.2 °F 94% 30.07 in 2.0 mi South 3.5 mph - N/A   Overcast
9:53 AM 68.0 °F - 66.9 °F 96% 30.05 in 2.0 mi SSE 3.5 mph - N/A   Overcast
10:05 AM 69.8 °F - 66.2 °F 88% 30.07 in 3.0 mi Calm Calm - N/A   Overcast
10:34 AM 73.4 °F - 68.0 °F 83% 30.08 in 9.0 mi SW 5.8 mph - N/A   Overcast
10:53 AM 75.9 °F - 69.1 °F 79% 30.06 in 10.0 mi SSW 5.8 mph - N/A   Mostly Cloudy
11:01 AM 75.2 °F - 68.0 °F 78% 30.08 in 10.0 mi South 4.6 mph - N/A   Mostly Cloudy
11:28 AM 75.2 °F - 66.2 °F 73% 30.08 in 10.0 mi SSW 3.5 mph - N/A   Mostly Cloudy
11:53 AM 75.9 °F - 66.9 °F 74% 30.06 in 10.0 mi South 4.6 mph - N/A   Mostly Cloudy
12:53 PM 79.0 °F - 64.9 °F 62% 30.03 in 10.0 mi South 6.9 mph - N/A   Mostly Cloudy
1:53 PM 80.1 °F 81.7 °F 64.0 °F 58% 30.00 in 10.0 mi West 3.5 mph - N/A   Scattered Clouds
2:53 PM 80.1 °F 81.7 °F 64.0 °F 58% 29.99 in 10.0 mi SSW 4.6 mph - N/A   Partly Cloudy
3:53 PM 81.0 °F 82.2 °F 63.0 °F 54% 29.97 in 10.0 mi Calm Calm - N/A   Partly Cloudy
4:53 PM 82.0 °F 83.1 °F 63.0 °F 52% 29.96 in 10.0 mi SSE 4.6 mph - N/A   Mostly Cloudy
5:53 PM 81.0 °F 82.5 °F 64.0 °F 56% 29.96 in 10.0 mi Calm Calm - N/A   Clear
6:53 PM 75.0 °F - 64.9 °F 71% 29.97 in 10.0 mi Calm Calm - N/A   Clear
7:53 PM 71.1 °F - 64.9 °F 81% 29.98 in 10.0 mi Calm Calm - N/A   Clear
8:53 PM 70.0 °F - 64.9 °F 84% 29.98 in 10.0 mi Calm Calm - N/A   Clear
9:53 PM 69.1 °F - 64.9 °F 87% 29.98 in 9.0 mi Calm Calm - N/A   Clear
10:53 PM 69.1 °F - 64.0 °F 84% 29.99 in 9.0 mi Calm Calm - N/A   Clear
11:53 PM 69.1 °F - 64.0 °F 84% 29.99 in 10.0 mi SE 5.8 mph - N/A   Partly Cloudy